Home > Weather > Uster > Past weeks

Flag for Switzerland Past Weather in Uster, Zurich, Switzerland — Yesterday and Last 2 Weeks

Now
78 °F

Warm.


Feels Like: 80 °F
Forecast: 56 / 75 °F
Wind: 5 mph from Southwest

Location: Zuerich-Fluntern

Current Time: Jul 26, 2016 at 8:04:05 PM

Latest Report: Jul 26, 2016 at 7:00 PM


Visibility: N/A

Pressure: 30.01 "Hg

Humidity: 53%

Dew Point: 60 °F

Location of UsterLocation

Past Weather in Uster — Graph

°F

Uster Temperature Yesterday

Maximum temperature yesterday: 76 °F (at 2:00 PM)
Minimum temperature yesterday: 64 °F (at 6:00 AM)
Average temperature yesterday: 68 °F

High & Low Weather Summary for the Past Weeks

 TemperatureHumidityPressure
High88 °F (Jul 20, 5:00 PM)100% (Jul 11, 10:00 PM)30.37 "Hg (Jul 11, 10:00 PM)
Low47 °F (Jul 16, 5:00 AM)32% (Jul 20, 7:00 PM)29.88 "Hg (Jul 20, 7:00 PM)
Average65 °F77%30.09 "Hg
* Reported Jul 11 6:00 PM — Jul 26 6:00 PM, Uster, Weather by CustomWeather, © 2016

Note: Actual official high and low records may vary slightly from our data, if they occured in-between our weather recording intervals... More about our weather records

Advertising

Uster Weather History for the Previous 24 Hours

Scroll right to see more
 ConditionsComfort  
Time TempWeatherWind HumidityBarometerVisibility
6:00 PM
Tue, Jul 26
78 °FWarm.1 mph55%30.01 "HgN/A
5:00 PM78 °FWarm.2 mph53%30.01 "HgN/A
4:00 PM79 °FWarm.5 mph47%30.02 "HgN/A
3:00 PM77 °FWarm.3 mph57%30.04 "HgN/A
2:00 PM77 °FScattered clouds.3 mph57%30.05 "HgN/A
1:00 PM76 °FMild.2 mph66%30.07 "HgN/A
12:00 PM73 °FMild.3 mph67%30.09 "HgN/A
11:00 AM71 °FMild.3 mph81%30.09 "HgN/A
10:00 AM66 °FMild.2 mph92%30.12 "HgN/A
9:00 AM65 °FMild.1 mph94%30.12 "HgN/A
8:00 AM63 °FOvercast.1 mph97%30.12 "HgN/A
7:00 AM62 °FCool.3 mph98%30.12 "HgN/A
6:00 AM61 °FCool.5 mph97%30.12 "HgN/A
5:00 AM62 °FCool.1 mph97%30.12 "HgN/A
4:00 AM62 °FCool.2 mph96%30.13 "HgN/A
3:00 AM63 °FMild.2 mph95%30.13 "HgN/A
2:00 AM63 °FMild.2 mph97%30.13 "HgN/A
1:00 AM64 °FMild.9 mph93%30.13 "HgN/A
12:00 AM66 °FMild.9 mph95%30.13 "HgN/A
11:00 PM
Mon, Jul 25
65 °FMild.3 mph96%30.12 "HgN/A
10:00 PM65 °FMild.6 mph95%30.11 "HgN/A
9:00 PM67 °FMild.6 mph92%30.10 "HgN/A
8:00 PM68 °FOvercast.2 mph94%30.09 "HgN/A
Weather by CustomWeather, © 2016

See weather overviewHow to use our weather pages